TimePDT,TemperatureF,Dew PointF,Humidity,Sea Level PressureIn,VisibilityMPH,Wind Direction,Wind SpeedMPH,Gust SpeedMPH,PrecipitationIn,Events,Conditions,WindDirDegrees,DateUTC
12:53 AM,66.9,53.1,61,30.05,10.0,WNW,5.8,-,N/A,,Mostly Cloudy,300,2013-08-17 07:53:00
1:53 AM,66.0,53.1,63,30.04,10.0,Calm,Calm,-,N/A,,Scattered Clouds,0,2013-08-17 08:53:00
2:53 AM,64.0,54.0,70,30.05,10.0,NW,5.8,-,N/A,,Scattered Clouds,310,2013-08-17 09:53:00
3:53 AM,64.0,54.0,70,30.05,10.0,Calm,Calm,-,N/A,,Partly Cloudy,0,2013-08-17 10:53:00
4:53 AM,62.1,54.0,75,30.06,10.0,West,3.5,-,N/A,,Partly Cloudy,280,2013-08-17 11:53:00
5:53 AM,62.1,55.0,78,30.06,10.0,Calm,Calm,-,N/A,,Mostly Cloudy,0,2013-08-17 12:53:00
6:53 AM,63.0,55.9,78,30.07,10.0,Calm,Calm,-,N/A,,Mostly Cloudy,0,2013-08-17 13:53:00
7:53 AM,66.0,55.9,70,30.08,10.0,Calm,Calm,-,N/A,,Mostly Cloudy,0,2013-08-17 14:53:00
8:53 AM,66.9,57.0,70,30.09,10.0,Calm,Calm,-,N/A,,Mostly Cloudy,0,2013-08-17 15:53:00
9:53 AM,70.0,55.0,59,30.09,10.0,Variable,3.5,-,N/A,,Mostly Cloudy,0,2013-08-17 16:53:00
10:53 AM,73.0,54.0,51,30.09,10.0,Variable,3.5,-,N/A,,Mostly Cloudy,0,2013-08-17 17:53:00
11:53 AM,75.0,54.0,48,30.07,10.0,NW,5.8,-,N/A,,Mostly Cloudy,320,2013-08-17 18:53:00
12:53 PM,75.9,54.0,46,30.06,10.0,WNW,5.8,-,N/A,,Mostly Cloudy,300,2013-08-17 19:53:00
1:53 PM,78.1,55.9,46,30.06,10.0,NW,6.9,-,N/A,,Scattered Clouds,320,2013-08-17 20:53:00
2:53 PM,80.1,55.0,42,30.04,10.0,WNW,4.6,-,N/A,,Scattered Clouds,300,2013-08-17 21:53:00
3:53 PM,81.0,55.9,42,30.03,10.0,WNW,10.4,-,N/A,,Scattered Clouds,300,2013-08-17 22:53:00
4:53 PM,81.0,57.9,45,30.02,10.0,NW,8.1,-,N/A,,Partly Cloudy,320,2013-08-17 23:53:00
5:53 PM,81.0,57.9,45,30.01,10.0,NW,9.2,-,N/A,,Partly Cloudy,320,2013-08-18 00:53:00
6:53 PM,78.1,59.0,52,30.02,10.0,NNW,11.5,-,N/A,,Scattered Clouds,330,2013-08-18 01:53:00
7:53 PM,73.9,59.0,59,30.03,10.0,NNW,9.2,16.1,N/A,,Partly Cloudy,330,2013-08-18 02:53:00
8:53 PM,72.0,57.9,61,30.04,10.0,NW,11.5,-,N/A,,Partly Cloudy,310,2013-08-18 03:53:00
9:53 PM,70.0,57.9,65,30.05,10.0,NW,6.9,-,N/A,,Clear,320,2013-08-18 04:53:00
10:53 PM,66.9,57.9,73,30.06,10.0,NNW,5.8,-,N/A,,Partly Cloudy,330,2013-08-18 05:53:00
11:53 PM,66.0,57.9,75,30.08,10.0,NW,9.2,-,N/A,,Scattered Clouds,310,2013-08-18 06:53:00